Location: ???????
(55.4362°N, 38.1183°E)
Time: 12:28:55
(UTC+00:00)

Cosmos 372 Rocket - Pass Details

Date: 27 October 2021
Orbit: 738 x 768 km, 74.1° (Epoch: 29 November)

Event Time Altitude Azimuth Distance (km) Brightness Sun altitude
Rises 15:48:36 0° 273° (W) 3,176 9.1 -15.9°
Reaches altitude 10° 15:51:58 10° 296° (WNW) 2,256 7.5 -16.4°
Maximum altitude 15:54:56 15° 332° (NNW) 1,918 6.4 -16.8°
Drops below altitude 10° 15:57:54 10° 8° (N) 2,263 6.4 -17.3°
Enters shadow 16:00:37 - 27° (NNE) 2,983 6.8 -17.7°
